DMSP 5D-2 F13 DEB, 40513

Orbit data source: Space-Track

DMSP 5D-2 F13 DEB, 40513 is space debris in SSO originally from a launch on Fri, 24 Mar 1995 UTC launched from the Air Force Western Test Range (AFWTR). Debris objects in space refer to the collection of defunct objects orbiting the Earth. Examples of debris include non-operational satellites, rocket bodies, and fragments generated from explosions, collisions, or faulty payload assembly.

Loading next visibility...
Identifier
40513, 1995-015CZ
Orbit
SSO
Country
Flag of USUS
Related business
Manufacturer
Unknown
Mission
Spacecraft
Bus & Motor
Unknown
Mass
Unknown
Launch date (UTC)
1995-03-24 (31 years ago)
Launch vehicle
Unknown
Launch site
Air Force Western Test Range (AFWTR)
Object type
Payload
Rocket body
Debris
Shape & HBR
Unknown shape, 0.1 m
Radar Cross Section
Small (<0.1 m²)

Expand to show TLE details & history
Last TLE update: 14 hours ago

TLE from 14 hours ago
0 DMSP 5D-2 F13 DEB
1 40513U 95015CZ  26253.32260354  .00000623  00000-0  29728-3 0  9998
2 40513  98.7595 272.8932 0005896 224.4486 135.6219 14.22861315593679
Epoch: 2026-09-10T07:44Z
TLE epoch observation values (Epoch: 2026-09-10T07:44:32.945Z)
Latitude
-0.00008°
Longitude
167.39397°
Altitude
821.642 km
Speed
7.441 km/s
True Right ascension
18h 11m 34s
True Declination
0° 00' 00"
Sunlit
Object was in daylight at epoch
Visualization orbit readout
Latitude
Unknown
Longitude
Unknown
Altitude
Unknown
Speed
Unknown
Apparent Right ascension
Unknown
Apparent Declination
Unknown
Sunlit
N/A
Visualization observer readout
Local Sidereal Time
14:32:26
Azimuth
Unknown
Elevation
Unknown
Doppler factor
Unknown
Orbital elements
Apogee altitude
817.089 km
Perigee altitude
808.61 km
Semi-major axis
7,190.986 km
Eccentricity
0.00059
Inclination
98.7595°
RAAN
272.8932°
Arg. of periapsis
224.4486°
True anomaly
135.66913°
Mean anomaly
135.6219°
Eccentric anomaly
135.64552°
Mean motion
3.55927 °/min
Orbital period
101.14 mins
BSTAR
0.00029728

Documentation

Showing up to 5 results
|